Tracking 23762 objects as of 20-Oct-2021
HD Live streaming from Space Station
objects crossing your sky now

HARBINGER

Track HARBINGER now!
10-day predictions


NORAD ID: 44229
Int'l Code: 2019-026E
Perigee: 500.6 km
Apogee: 510.5 km
Inclination: 40.0 °
Period: 94.6 minutes
Semi major axis: 6876 km
RCS: Unknown
Launch date: May 5, 2019
Source: United States (US)
Launch site: Rocket Lab Launch Complex (RLLC)
aabbcc
Your satellite tracking list
Your tracking list is empty




NASA's NSSDC Master Catalog

Two Line Element Set (TLE):
1 44229U 19026E   21292.52625794  .00002099  00000-0  96515-4 0  9995
2 44229  40.0205  12.1089 0007196  44.9597 315.1786 15.22468089136811
Source of the keplerian elements: AFSPC